This demonstration page uses our WeatherBlox Daily Observations layout. Learn more.

Left ArrowRight Arrow

40.92945, -100.16068

Hourly Observations for May 23, 2020

Temp ( °F °C ) Dew Point ( °F °C ) Humidity (%) Winds ( mph kmh ) Pressure ( in mb ) Visibility ( mi km ) Precip ( " mm )
12:15 am 00:15 Clear with Mist and Fog 52 11.3 52 10.9 97 97 E 3 6 29.84 1010 5 8.0467 0 0
12:35 am 00:35 Clear 53 11.7 53 11.5 99 99 E 3 6 29.84 1010 10 16.0934 0 0
12:55 am 00:55 Clear with Mist and Fog 53 11.9 53 11.6 98 98 Calm 29.83 1010 4 6.43736 0 0
1:15 am 01:15 Mostly Cloudy with Fog 52 11.2 52 10.9 98 98 Calm 29.84 1011 0.5 0.80467 0 0
1:35 am 01:35 Mostly Cloudy with Fog 52 11 51 10.8 99 99 Calm 29.83 1010 0.25 0.402335 0 0
1:55 am 01:55 Partly Cloudy with Fog 51 10.4 50 10.2 99 99 Calm 29.84 1010 0.5 0.80467 0 0
2:15 am 02:15 Cloudy with Fog 50 10 50 9.9 99 99 Calm 29.83 1010 0.25 0.402335 0 0
2:35 am 02:35 Cloudy with Fog 47 8.4 47 8.2 99 99 Calm 29.85 1011 N/A 0 0
2:55 am 02:55 Cloudy with Fog 48 8.8 48 8.7 99 99 Calm 29.83 1010 N/A 0 0
3:15 am 03:15 Cloudy with Fog 48 9 48 8.8 99 99 NE 3 6 29.82 1010 0.25 0.402335 0 0
3:35 am 03:35 Cloudy with Fog 48 9 48 8.8 99 99 Calm 29.83 1010 0.25 0.402335 0 0
3:55 am 03:55 Cloudy with Fog 48 8.7 47 8.6 99 99 Calm 29.83 1010 0.25 0.402335 0 0
4:15 am 04:15 Cloudy with Fog 48 8.7 47 8.6 99 99 NNE 3 6 29.82 1010 N/A 0 0
4:35 am 04:35 Cloudy with Fog 47 8.5 47 8.4 99 99 SW 3 6 29.85 1011 0.25 0.402335 0 0
4:55 am 04:55 Cloudy with Fog 49 9.7 49 9.6 99 99 Calm 29.83 1010 0.25 0.402335 0 0
5:15 am 05:15 Cloudy with Fog 49 9.6 49 9.5 99 99 Calm 29.83 1010 N/A 0 0
5:35 am 05:35 Cloudy with Fog 49 9.7 49 9.6 99 99 Calm 29.84 1011 0.25 0.402335 0 0
5:55 am 05:55 Cloudy with Fog 50 10 50 10 100 100 SW 3 6 29.85 1011 0.25 0.402335 0 0
6:15 am 06:15 Cloudy with Fog 50 10.2 50 10.1 99 99 Calm 29.86 1011 N/A 0 0
6:35 am 06:35 Cloudy with Fog 51 10.6 51 10.5 99 99 SSW 3 6 29.86 1011 N/A 0 0
6:55 am 06:55 Cloudy with Fog 53 11.5 53 11.4 99 99 Calm 29.87 1011 0.25 0.402335 0 0
7:15 am 07:15 Cloudy with Fog 54 12 53 11.9 99 99 Calm 29.86 1011 0.25 0.402335 0 0
7:35 am 07:35 Cloudy with Mist and Fog 55 12.5 54 12.4 99 99 Calm 29.85 1011 1.5 2.41401 0 0
7:55 am 07:55 Cloudy with Mist and Fog 55 12.7 55 12.6 99 99 S 3 6 29.85 1011 2.5 4.02335 0 0
8:15 am 08:15 Cloudy with Mist and Fog 55 12.9 55 12.8 99 99 Calm 29.83 1010 0.75 1.207005 0 0
8:35 am 08:35 Cloudy with Mist and Fog 56 13.3 56 13.2 99 99 E 3 6 29.83 1010 1.75 2.816345 0 0
8:55 am 08:55 Cloudy with Mist and Fog 57 13.8 57 13.7 99 99 E 6 9 29.83 1010 4 6.43736 0 0
9:15 am 09:15 Cloudy with Mist and Fog 58 14.2 57 14 99 99 ESE 7 11 29.82 1010 5 8.0467 0 0
9:35 am 09:35 Mostly Cloudy 58 14.5 57 14.1 97 97 SE 8 13 29.82 1010 7 11.26538 0 0
9:55 am 09:55 Partly Cloudy 60 15.5 58 14.6 94 94 E 10 17 29.8 1009 10 16.0934 0 0
10:15 am 10:15 Sunny 61 16 59 14.8 93 93 ESE 9 15 29.8 1009 10 16.0934 0 0
10:35 am 10:35 Partly Cloudy 63 17 60 15.3 90 90 ESE 13 20 29.79 1009 10 16.0934 0 0
10:55 am 10:55 Partly Cloudy 64 17.7 60 15.5 87 87 ESE 10 17 29.77 1008 10 16.0934 0 0
11:15 am 11:15 Partly Cloudy 66 18.8 60 15.6 82 82 ESE 13 20 29.76 1008 10 16.0934 0 0
11:35 am 11:35 Partly Cloudy 67 19.4 61 15.9 80 80 SE 13 20 29.76 1008 10 16.0934 0 0
11:55 am 11:55 Partly Cloudy 68 20 61 16.3 79 79 E 13 20 29.74 1007 10 16.0934 0 0
12:15 pm 12:15 Partly Cloudy 69 20.6 62 16.7 78 78 ESE 13 20 29.73 1007 10 16.0934 0 0
12:35 pm 12:35 Mostly Cloudy 70 21.3 62 16.8 76 76 SE 13 20 29.71 1006 10 16.0934 0 0
12:55 pm 12:55 Cloudy 72 22.2 62 16.9 72 72 SE 16 26 29.69 1006 10 16.0934 0 0
1:15 pm 13:15 Mostly Cloudy 73 22.5 63 17.1 72 72 SE 17 28 29.68 1005 10 16.0934 0 0
1:35 pm 13:35 Cloudy 72 22 62 16.9 73 73 SE 17 28 29.68 1005 10 16.0934 0 0
1:55 pm 13:55 Cloudy 72 22.3 62 16.8 71 71 ESE 15 24 29.67 1005 10 16.0934 0 0
2:15 pm 14:15 Cloudy 74 23.1 63 17.1 69 69 SE 21 33 29.66 1004 10 16.0934 0 0
2:35 pm 14:35 Cloudy 72 22.4 63 17 72 72 SE 16 26 29.66 1004 10 16.0934 0 0
2:55 pm 14:55 Cloudy 73 22.6 62 16.9 70 70 SE 18 30 29.66 1004 10 16.0934 0 0
3:15 pm 15:15 Cloudy 73 22.5 63 17.1 72 72 SE 17 28 29.65 1004 10 16.0934 0 0
3:35 pm 15:35 Cloudy 73 22.8 63 17.1 70 70 SE 16 26 29.65 1004 10 16.0934 0 0
3:55 pm 15:55 Cloudy 74 23.2 64 17.5 70 70 SE 18 30 29.64 1004 10 16.0934 0 0
4:15 pm 16:15 Cloudy 73 22.8 63 17.3 71 71 SE 12 19 29.64 1004 10 16.0934 0 0
4:35 pm 16:35 Cloudy 74 23.3 63 17.3 69 69 SE 16 26 29.64 1004 10 16.0934 0 0
4:55 pm 16:55 Cloudy 74 23.1 63 17.1 69 69 SE 15 24 29.63 1003 10 16.0934 0 0
5:15 pm 17:15 Cloudy 74 23.1 63 17.4 70 70 SSE 17 28 29.63 1003 10 16.0934 0 0
5:35 pm 17:35 Cloudy 74 23.2 63 17.4 70 70 SE 18 30 29.62 1003 10 16.0934 0 0
5:55 pm 17:55 Mostly Cloudy 74 23.3 64 17.5 70 70 SE 14 22 29.62 1003 10 16.0934 0 0
6:15 pm 18:15 Mostly Cloudy 74 23.3 64 17.7 71 71 SE 14 22 29.61 1003 10 16.0934 0 0
6:35 pm 18:35 Mostly Cloudy 73 22.9 64 17.7 73 73 SE 16 26 29.6 1002 10 16.0934 0 0
6:55 pm 18:55 Partly Cloudy 73 22.7 64 18 75 75 ESE 13 20 29.6 1002 10 16.0934 0 0
7:15 pm 19:15 Mostly Cloudy 73 22.5 64 17.9 75 75 ESE 15 24 29.59 1002 10 16.0934 0 0
7:35 pm 19:35 Mostly Cloudy 72 22.3 64 18 77 77 ESE 12 19 29.59 1002 10 16.0934 0 0
7:55 pm 19:55 Mostly Cloudy 72 22.1 65 18.1 78 78 ESE 13 20 29.6 1002 10 16.0934 0 0
8:15 pm 20:15 Mostly Cloudy 71 21.8 64 18 79 79 ESE 12 19 29.59 1002 10 16.0934 0 0
8:35 pm 20:35 Partly Cloudy 71 21.6 64 18 80 80 ESE 14 22 29.59 1002 10 16.0934 0 0
8:55 pm 20:55 Partly Cloudy 71 21.5 64 18 81 81 ESE 13 20 29.59 1002 10 16.0934 0 0
9:15 pm 21:15 Partly Cloudy 70 21.1 64 18 83 83 E 13 20 29.59 1002 10 16.0934 0 0
9:35 pm 21:35 Partly Cloudy 69 20.6 64 18 85 85 E 12 19 29.6 1002 10 16.0934 0 0
9:55 pm 21:55 Mostly Cloudy 69 20.6 64 18 85 85 E 12 19 29.59 1002 10 16.0934 0 0
10:15 pm 22:15 Cloudy 69 20.8 64 18 84 84 ESE 16 26 29.59 1002 10 16.0934 0 0
10:35 pm 22:35 Cloudy 69 20.8 64 18 84 84 ESE 17 28 29.58 1002 10 16.0934 0 0
10:55 pm 22:55 Cloudy 70 21.1 65 18.1 83 83 ESE 18 30 29.56 1001 10 16.0934 0 0
11:15 pm 23:15 Mostly Cloudy 69 20.8 65 18.2 85 85 E 20 31 29.57 1001 10 16.0934 0 0
11:35 pm 23:35 Partly Cloudy 69 20.5 65 18.2 87 87 ESE 21 33 29.57 1001 10 16.0934 0 0
11:55 pm 23:55 Clear 68 20.1 65 18.2 89 89 ESE 16 26 29.57 1001 10 16.0934 0 0

Powered by AerisWeather